Visibility
7.9 15.0 10.0 12.4 15.0 14.5 8.2 15.0 15.0 15.0 15.0 10.1 15.0 15.0 12.7 15.0 15.0 15.0 15.0 15.0 15.0 15.0 15.0 15.0 15.0 15.0 15.0 15.0 15.0 15.0 15.0 15.0 15.0 15.0 15.0 15.0 15.0 10.1 2.8 15.0 15.0 15.0 15.0
9.4 15.0 15.0 8.7 14.1 15.0 15.0 13.3 15.0 7.3 15.0 10.9 7.8 15.0 15.0 7.6 4.5 15.0 15.0 15.0 15.0 15.0 15.0 15.0 15.0 10.3 15.0 15.0 15.0 15.0 15.0 15.0 15.0 15.0 15.0 15.0 15.0 10.0 2.9 15.0 15.0 9.7 15.0
12.5 3.6 2.7 2.6 4.7 1.8 11.0 15.0 15.0 15.0 15.0 15.0 15.0 14.8 14.0 15.0 15.0 12.2 15.0 15.0 14.1 1.3 15.0 15.0 15.0 15.0 15.0 15.0 15.0 15.0 15.0 15.0 15.0 15.0 15.0 15.0 15.0 15.0 14.3 3.5 10.7 8.1 5.1
10.8 3.9 2.7 5.0 12.9 12.8 14.3 15.0 2.7 15.0 15.0 15.0 15.0 15.0 13.9 8.2 15.0 15.0 15.0 15.0 15.0 15.0 0.4 13.6 15.0 15.0 15.0 15.0 13.1 15.0 15.0 15.0 15.0 15.0 15.0 15.0 15.0 15.0 15.0 15.0 15.0 4.4 4.5
15.0 15.0 15.0 15.0 15.0 15.0 15.0 13.6 5.7 3.8 11.0 11.4 11.8 15.0 15.0 15.0 15.0 12.1 12.2 15.0 15.0 15.0 15.0 15.0 15.0 15.0 15.0 15.0 15.0 15.0 15.0 15.0 15.0 15.0 15.0 15.0 15.0 15.0 15.0 15.0 15.0 8.8 9.6
15.0 15.0 15.0 15.0 15.0 15.0 15.0 14.8 15.0 14.7 15.0 15.0 14.4 15.0 15.0 15.0 3.8 15.0 15.0 15.0 15.0 15.0 15.0 15.0 14.5 15.0 15.0 15.0 15.0 15.0 15.0 15.0 15.0 15.0 13.3 15.0 15.0 15.0 15.0 15.0 15.0 15.0 10.9
15.0 15.0 15.0 15.0 15.0 15.0 15.0 15.0 15.0 14.7 8.9 15.0 15.0 15.0 15.0 15.0 1.8 3.6 15.0 15.0 15.0 15.0 15.0 15.0 15.0 15.0 5.4 14.0 15.0 15.0 15.0 7.2 15.0 15.0 5.5 4.0 15.0 15.0 15.0 15.0 15.0 15.0 15.0
15.0 15.0 15.0 15.0 15.0 15.0 15.0 15.0 15.0 15.0 15.0 15.0 7.2 13.5 14.2 14.9 8.7 15.0 9.1 15.0 15.0 15.0 15.0 15.0 15.0 15.0 15.0 15.0 15.0 15.0 15.0 15.0 15.0 15.0 15.0 7.9 9.5 12.9 15.0 15.0 15.0 15.0 15.0
15.0 15.0 15.0 15.0 15.0 15.0 15.0 15.0 15.0 15.0 15.0 15.0 15.0 10.1 8.2 14.1 15.0 13.5 14.6 15.0 15.0 15.0 15.0 15.0 15.0 15.0 15.0 15.0 15.0 15.0 15.0 15.0 15.0 15.0 15.0 14.6 11.5 10.9 15.0 9.9 12.3 15.0 15.0
15.0 15.0 15.0 15.0 15.0 15.0 15.0 15.0 15.0 15.0 15.0 14.5 15.0 15.0 13.5 12.4 3.9 9.8 11.7 14.4 15.0 7.3 15.0 15.0 15.0 15.0 15.0 15.0 15.0 15.0 15.0 15.0 15.0 15.0 15.0 15.0 13.5 15.0 15.0 15.0 15.0 15.0 15.0
15.0 15.0 15.0 15.0 15.0 15.0 15.0 15.0 15.0 15.0 15.0 15.0 15.0 15.0 14.0 15.0 13.4 5.1 9.4 15.0 15.0 15.0 15.0 15.0 15.0 15.0 15.0 15.0 15.0 15.0 15.0 15.0 15.0 15.0 15.0 15.0 15.0 15.0 15.0 15.0 15.0 15.0 15.0
15.0 15.0 15.0 15.0 15.0 15.0 15.0 15.0 15.0 15.0 15.0 15.0 15.0 15.0 10.6 2.0 11.4 7.0 8.0 11.8 15.0 15.0 15.0 15.0 15.0 15.0 15.0 15.0 15.0 15.0 15.0 15.0 15.0 15.0 15.0 15.0 15.0 15.0 15.0 15.0 15.0 15.0 15.0
15.0 15.0 15.0 15.0 15.0 15.0 15.0 15.0 15.0 15.0 15.0 15.0 15.0 15.0 15.0 15.0 15.0 15.0 12.3 9.4 6.5 15.0 15.0 15.0 15.0 15.0 15.0 15.0 15.0 15.0 15.0 15.0 7.0 10.9 15.0 15.0 15.0 15.0 15.0 15.0 15.0 15.0 15.0
15.0 15.0 15.0 15.0 15.0 15.0 15.0 15.0 15.0 15.0 15.0 15.0 15.0 15.0 15.0 15.0 15.0 15.0 15.0 4.6 6.6 10.1 14.6 15.0 15.0 15.0 15.0 15.0 15.0 15.0 15.0 15.0 0.1 0.1 0.1 15.0 15.0 15.0 15.0 15.0 15.0 15.0 15.0
15.0 15.0 15.0 15.0 15.0 15.0 15.0 15.0 15.0 15.0 15.0 15.0 15.0 15.0 15.0 15.0 15.0 15.0 15.0 15.0 5.4 9.4 15.0 15.0 15.0 15.0 15.0 15.0 15.0 15.0 15.0 9.0 0.1 0.0 0.0 0.1 5.0 15.0 15.0 15.0 15.0 15.0 15.0
15.0 15.0 15.0 15.0 15.0 15.0 15.0 15.0 15.0 15.0 15.0 15.0 15.0 15.0 15.0 15.0 15.0 15.0 15.0 15.0 14.9 8.0 12.5 15.0 15.0 15.0 15.0 15.0 15.0 15.0 15.0 15.0 0.0 0.0 0.0 0.0 0.1 0.1 0.4 0.1 0.2 6.8 10.9
15.0 15.0 15.0 15.0 15.0 15.0 15.0 15.0 15.0 15.0 15.0 15.0 15.0 15.0 15.0 15.0 15.0 15.0 15.0 15.0 15.0 15.0 9.7 15.0 15.0 15.0 15.0 15.0 15.0 15.0 15.0 15.0 7.6 0.0 0.0 0.0 0.0 0.1 0.1 0.1 0.1 0.1 0.0
15.0 14.8 15.0 15.0 15.0 15.0 14.3 14.9 14.7 6.3 5.1 7.2 15.0 15.0 15.0 15.0 15.0 15.0 15.0 15.0 15.0 15.0 15.0 15.0 15.0 12.4 15.0 15.0 15.0 15.0 15.0 15.0 15.0 0.3 0.0 0.0 0.0 0.0 0.1 0.0 0.0 0.0 0.0
14.2 15.0 15.0 14.0 5.1 5.5 14.0 11.7 7.0 9.0 8.6 6.7 13.7 15.0 15.0 15.0 15.0 15.0 15.0 15.0 15.0 15.0 15.0 15.0 15.0 15.0 15.0 15.0 15.0 14.9 12.3 15.0 15.0 0.4 0.0 0.0 0.0 0.0 0.1 0.0 0.0 0.0 0.0
13.5 13.5 12.4 15.0 5.5 5.6 7.3 10.3 7.9 10.8 14.4 10.8 9.0 13.1 15.0 14.7 15.0 15.0 15.0 15.0 15.0 15.0 14.9 15.0 15.0 11.3 15.0 15.0 14.5 15.0 8.6 11.3 15.0 9.1 0.5 0.3 0.1 0.1 0.1 0.0 0.0 0.0 0.0
14.0 15.0 14.1 14.8 10.0 8.3 3.4 6.0 7.9 8.2 8.4 0.7 0.5 12.9 8.0 7.9 6.8 0.4 11.1 15.0 15.0 4.2 11.8 14.8 15.0 15.0 13.1 8.7 15.0 15.0 13.5 8.6 12.1 0.1 0.0 0.0 0.0 0.1 0.1 0.0 0.1 0.0 0.0
15.0 15.0 13.8 15.0 9.8 9.4 0.9 0.8 3.9 1.8 2.6 0.3 0.2 0.2 0.4 6.8 14.4 14.8 10.8 3.7 0.4 0.1 0.1 13.1 12.6 12.1 15.0 9.2 13.1 14.9 15.0 1.2 0.0 0.1 0.0 0.0 0.1 0.0 0.1 0.2 0.1 0.1 0.0
15.0 15.0 15.0 15.0 6.9 5.3 15.0 2.4 0.2 0.2 0.2 0.1 0.1 0.1 0.2 0.1 0.2 7.3 7.4 14.7 15.0 3.2 0.2 0.4 0.1 0.0 0.3 0.0 0.3 5.5 15.0 13.7 15.0 5.2 0.1 0.0 0.0 0.0 0.2 13.5 15.0 15.0 5.0
15.0 15.0 15.0 15.0 13.3 6.5 15.0 15.0 10.0 1.1 0.2 0.1 0.1 0.1 0.1 0.1 0.1 0.1 0.9 2.5 3.3 3.5 1.1 0.3 0.1 0.1 0.1 0.6 1.3 13.0 2.5 0.1 0.0 0.0 0.0 0.0 0.0 0.0 0.0 0.3 13.1 15.0 15.0
15.0 15.0 15.0 15.0 15.0 15.0 15.0 6.9 4.8 2.7 1.9 1.9 0.4 0.1 0.1 0.1 0.1 0.1 0.1 0.1 0.1 0.1 0.3 5.2 4.5 4.9 7.3 14.9 15.0 14.3 0.5 0.1 0.0 0.0 0.0 0.0 0.0 0.0 0.0 0.1 0.1 15.0 15.0
15.0 15.0 15.0 15.0 15.0 15.0 15.0 15.0 13.6 3.1 1.5 1.5 2.5 1.6 1.1 0.5 0.2 0.1 0.1 0.1 0.2 0.1 0.1 0.1 0.2 0.4 0.7 0.9 6.5 3.2 2.4 0.1 0.1 0.0 0.1 0.0 0.0 0.0 0.1 0.0 0.1 0.1 0.1